Voltar ao catálogo

STARLINK-5224

AtivoComunicaçõesVLEO
NORAD 55397·PAYLOAD·🇺🇸 United States

Lançado Jan 31, 2023 de Vandenberg Space Force Base

Loading…

Próximas Passagens (próximas 24 horas)

TLE

AtualizadoSource: CelesTrak SupGP

Época: Sep 15, 2026, 02:21 UTC

1 55397C 23014G   26258.09840278  .00734620  00000+0  58716-1 0  2587
2 55397  69.9995 287.0386 0003133 267.1993 183.9712 14.99784202    17

Acompanhe STARLINK-5224 em tempo real com AllMySat

Download on the App Store